This is the latest recevied weather packets stored in our database for station/object WA9AFM. If no packets are shown the sender has not sent any weather packets the latest 10 day(s).
| Time | Temp. | Humidity | Pressure | Rain* | Wind** | Luminosity | Snow |
|---|---|---|---|---|---|---|---|
| 1787856370 | 34.44° C | 47% | 1011.6 hPa | 0 mm | - | - | - |
| 1787855471 | 33.89° C | 49% | 1011.9 hPa | 0 mm | - | - | - |
| 1787854571 | 33.33° C | 51% | 1012.1 hPa | 0 mm | - | - | - |
| 1787853672 | 33.33° C | 50% | 1012.1 hPa | 0 mm | - | - | - |
| 1787852771 | 34.44° C | 49% | 1012.4 hPa | 0 mm | - | - | - |
| 1787851870 | 33.89° C | 49% | 1012.6 hPa | 0 mm | - | - | - |
| 1787850972 | 33.33° C | 49% | 1012.8 hPa | 0 mm | - | - | - |
| 1787850071 | 32.78° C | 51% | 1013 hPa | 0 mm | - | - | - |
| 1787849170 | 32.78° C | 52% | 1013 hPa | 0 mm | - | - | - |
| 1787848271 | 32.78° C | 52% | 1012.8 hPa | 0 mm | - | - | - |
| 1787847371 | 32.22° C | 54% | 1012.7 hPa | 0 mm | - | - | - |
| 1787846472 | 31.11° C | 54% | 1012.6 hPa | 0 mm | - | - | - |
| 1787845571 | 30.56° C | 61% | 1012.6 hPa | 0 mm | - | - | - |
| 1787844670 | 30° C | 65% | 1012.5 hPa | 0 mm | - | - | - |
| 1787843772 | 28.89° C | 65% | 1012.2 hPa | 0 mm | - | - | - |
| 1787842870 | 28.89° C | 66% | 1012.2 hPa | 0 mm | - | - | - |
| 1787841970 | 28.33° C | 69% | 1012.2 hPa | 0 mm | - | - | - |
| 1787841071 | 27.22° C | 71% | 1012.1 hPa | 0 mm | - | - | - |
| 1787840170 | 26.11° C | 75% | 1012 hPa | 0 mm | - | - | - |
| 1787839271 | 25.56° C | 77% | 1011.9 hPa | 0 mm | - | - | - |
| 1787838372 | 24.44° C | 79% | 1011.6 hPa | 0 mm | - | - | - |
| 1787837470 | 24.44° C | 80% | 1011.6 hPa | 0 mm | - | - | - |
| 1787836570 | 23.89° C | 81% | 1011.3 hPa | 0 mm | - | - | - |
| 1787835671 | 23.33° C | 82% | 1011.2 hPa | 0 mm | - | - | - |
| 1787834770 | 23.33° C | 83% | 1011.1 hPa | 0 mm | - | - | - |
* Rain latest hour (hover to see other rain measurements)
** Current wind speed in m/s (hover to see current wind gust speed)